Burlington, WA
on Wednesday, January 9, 2013

Wednesday
Previous Day Next Day
Daily Summary
 ActualAverage (KBLI)Record (KBLI)
Temperature
Mean Temperature °F 39°F  
Max Temperature 50°F 45°F 61°F (1986)
Min Temperature 35°F 33°F 16°F (1950)
Degree Days
Heating Degree Days 22 26  
Month to date heating degree days 240  
Cooling Degree Days 0 0  
Month to date cooling degree days 0  
Year to date cooling degree days 0  
Moisture
Dew Point 41°F   
Average Humidity 99    
Maximum Humidity 100    
Minimum Humidity 87    
Precipitation
Precipitation 0.28 in 0.16 in 0.92 in (1991)
Month to date precipitation 1.32  
Year to date precipitation 1.32  
Wind
Wind Speed 6 mph   
Max Wind Speed 13 mph   
Max Gust Speed 30 mph   
Visibility 7 miles   
Events     

Key: T is trace of precipitation, MM is missing value
Source: NWS Daily Summary
Time(PST)TemperatureDew PointHumidity Pressure Visibility Wind DirectionWind SpeedGust SpeedPrecipitationEvents Conditions
12:15 AM 50.0°F 50.0°F 100% 29.71 in 4.0 miles WSW 8.1 mph 29.9 mph 0.04 in   Overcast
12:35 AM 46.4°F 46.4°F 100% 29.71 in 4.0 miles West 6.9 mph - 0.13 in   Overcast
12:55 AM 46.4°F 46.4°F 100% 29.72 in 5.0 miles SW 8.1 mph - 0.15 in   Overcast
1:15 AM 46.4°F 46.4°F 100% 29.71 in 5.0 miles WSW 4.6 mph - 0.01 in   Overcast
1:35 AM 46.4°F 46.4°F 100% 29.72 in 5.0 miles SSW 4.6 mph - 0.02 in   Overcast
1:55 AM 44.6°F 44.6°F 100% 29.72 in 5.0 miles South 4.6 mph - 0.03 in   Overcast
2:15 AM 44.6°F 44.6°F 100% 29.72 in 5.0 miles Calm Calm - 0.01 in   Overcast
2:35 AM 44.6°F 44.6°F 100% 29.73 in 7.0 miles SE 5.8 mph - 0.02 in   Overcast
2:55 AM 44.6°F 44.6°F 100% 29.72 in 7.0 miles SE 3.5 mph - 0.02 in   Overcast
3:15 AM 44.6°F 44.6°F 100% 29.73 in 6.0 miles SSE 3.5 mph - 0.00 in   Overcast
3:35 AM 44.6°F 44.6°F 100% 29.72 in 8.0 miles Calm Calm - 0.01 in   Overcast
3:55 AM 44.6°F 44.6°F 100% 29.72 in 7.0 miles SE 3.5 mph - 0.02 in   Overcast
4:15 AM 44.6°F 44.6°F 100% 29.71 in 5.0 miles South 3.5 mph - 0.00 in   Overcast
4:35 AM 44.6°F 44.6°F 100% 29.71 in 5.0 miles SE 4.6 mph - 0.02 in   Overcast
4:55 AM 44.6°F 44.6°F 100% 29.69 in 5.0 miles ESE 3.5 mph - 0.04 in   Overcast
5:15 AM 42.8°F 42.8°F 100% 29.68 in 7.0 miles SE 4.6 mph - 0.00 in   Overcast
5:35 AM 42.8°F 42.8°F 100% 29.68 in 8.0 miles SSE 3.5 mph - 0.00 in   Overcast
5:55 AM 42.8°F 42.8°F 100% 29.68 in 8.0 miles SSE 3.5 mph - 0.00 in   Overcast
6:35 AM 42.8°F 42.8°F 100% 29.68 in 8.0 miles Calm Calm - 0.00 in   Mostly Cloudy
6:55 AM 42.8°F 42.8°F 100% 29.69 in 9.0 miles Calm Calm - 0.00 in   Mostly Cloudy
7:15 AM 42.8°F 42.8°F 100% 29.68 in 9.0 miles Calm Calm - 0.00 in   Overcast
7:35 AM 42.8°F 42.8°F 100% 29.70 in 8.0 miles Calm Calm - 0.00 in   Overcast
7:55 AM 42.8°F 42.8°F 100% 29.70 in 8.0 miles Calm Calm - 0.00 in   Overcast
8:15 AM 42.8°F 42.8°F 100% 29.71 in 8.0 miles Calm Calm - 0.00 in   Overcast
8:35 AM 42.8°F 42.8°F 100% 29.72 in 5.0 miles SSW 5.8 mph - 0.00 in   Overcast
8:55 AM 42.8°F 42.8°F 100% 29.72 in 4.0 miles SW 3.5 mph - 0.01 in   Overcast
9:15 AM 42.8°F 42.8°F 100% 29.73 in 6.0 miles Calm Calm - 0.01 in   Mostly Cloudy
9:35 AM 42.8°F 42.8°F 100% 29.74 in 7.0 miles South 3.5 mph - 0.01 in   Mostly Cloudy
10:15 AM 42.8°F 42.8°F 100% 29.74 in 7.0 miles SW 3.5 mph - 0.00 in   Mostly Cloudy
10:35 AM 42.8°F 42.8°F 100% 29.75 in 7.0 miles SW 5.8 mph - 0.00 in   Mostly Cloudy
10:55 AM 44.6°F 42.8°F 93% 29.75 in 7.0 miles SSW 9.2 mph - 0.00 in   Mostly Cloudy
11:15 AM 44.6°F 42.8°F 93% 29.75 in 7.0 miles SW 8.1 mph 19.6 mph 0.00 in   Partly Cloudy
11:35 AM 44.6°F 41.0°F 87% 29.75 in 7.0 miles SW 6.9 mph - 0.00 in   Scattered Clouds
12:15 PM 41.0°F 41.0°F 100% 29.76 in 8.0 miles South 11.5 mph - 0.00 in   Overcast
12:35 PM 39.2°F 39.2°F 100% 29.76 in 8.0 miles South 12.7 mph - 0.00 in   Overcast
12:55 PM 39.2°F 39.2°F 100% 29.76 in 9.0 miles South 9.2 mph - 0.00 in   Overcast
1:15 PM 39.2°F 39.2°F 100% 29.76 in 7.0 miles South 12.7 mph 17.3 mph 0.00 in   Mostly Cloudy
1:35 PM 39.2°F 39.2°F 100% 29.77 in 8.0 miles South 9.2 mph - 0.00 in   Mostly Cloudy
1:55 PM 39.2°F 39.2°F 100% 29.78 in 8.0 miles South 11.5 mph - 0.00 in   Overcast
2:15 PM 39.2°F 39.2°F 100% 29.79 in 8.0 miles South 8.1 mph - 0.00 in   Overcast
2:35 PM 39.2°F 39.2°F 100% 29.79 in 8.0 miles South 9.2 mph - 0.00 in   Overcast
2:55 PM 39.2°F 39.2°F 100% 29.80 in 8.0 miles South 6.9 mph - 0.00 in   Overcast
3:15 PM 39.2°F 39.2°F 100% 29.80 in 8.0 miles South 8.1 mph - 0.00 in   Overcast
3:35 PM 39.2°F 39.2°F 100% 29.80 in 7.0 miles South 8.1 mph - 0.00 in   Overcast
3:55 PM 39.2°F 39.2°F 100% 29.81 in 8.0 miles South 6.9 mph - 0.00 in   Mostly Cloudy
4:15 PM 39.2°F 39.2°F 100% 29.82 in 7.0 miles South 8.1 mph - 0.00 in   Mostly Cloudy
4:35 PM 39.2°F 39.2°F 100% 29.82 in 7.0 miles SW 9.2 mph 17.3 mph 0.00 in   Mostly Cloudy
4:55 PM 39.2°F 39.2°F 100% 29.83 in 8.0 miles South 8.1 mph - 0.00 in   Overcast
5:15 PM 39.2°F 39.2°F 100% 29.84 in 8.0 miles South 6.9 mph - 0.00 in   Mostly Cloudy
5:35 PM 39.2°F 39.2°F 100% 29.84 in 9.0 miles South 5.8 mph - 0.00 in   Mostly Cloudy
5:55 PM 39.2°F 39.2°F 100% 29.84 in 8.0 miles South 4.6 mph - 0.00 in   Scattered Clouds
6:35 PM 39.2°F 39.2°F 100% 29.86 in 8.0 miles South 5.8 mph - 0.00 in   Overcast
6:55 PM 39.2°F 37.4°F 93% 29.87 in 9.0 miles South 4.6 mph - 0.00 in   Mostly Cloudy
7:15 PM 39.2°F 39.2°F 100% 29.88 in 8.0 miles SSE 4.6 mph - 0.00 in   Mostly Cloudy
7:55 PM 37.4°F 37.4°F 100% 29.89 in 8.0 miles SSE 3.5 mph - 0.00 in   Scattered Clouds
8:15 PM 37.4°F 37.4°F 100% 29.89 in 9.0 miles South 6.9 mph - 0.00 in   Mostly Cloudy
8:35 PM 37.4°F 37.4°F 100% 29.90 in 9.0 miles South 6.9 mph - 0.00 in   Overcast
9:15 PM 35.6°F 35.6°F 100% 29.91 in 9.0 miles SSW 8.1 mph - 0.00 in   Mostly Cloudy
9:35 PM 35.6°F 35.6°F 100% 29.92 in 9.0 miles SSW 6.9 mph - 0.00 in   Mostly Cloudy
9:55 PM 35.6°F 35.6°F 100% 29.93 in 8.0 miles South 4.6 mph - 0.00 in   Mostly Cloudy
10:15 PM 35.6°F 35.6°F 100% 29.94 in 8.0 miles South 9.2 mph - 0.00 in   Mostly Cloudy
Moon Phase
Jan. 09 Jan. 11 Jan. 18 Jan. 26 Feb. 03
Sunrise:07:59 AM (PST) Moon Rise:05:45 AM (PST)1/9
Sunset:04:34 PM (PST) Moon Set:02:41 PM (PST)1/9

Copyright © 2014 The Weather Underground, Inc.